Diboll, TX

8:36 AM CST on February 22, 2017 (GMT -0600)
Angelina County

Weather History for KLFK - March, 2014

Change the Weather History Date:

Monday, March 3, 2014

  Actual Average Record
Temperature  
Mean Temperature 28 °F 56 °F  
Max Temperature 32 °F 68 °F 88 °F (1946)
Min Temperature 24 °F 45 °F 16 °F (1943)
Degree Days  
Heating Degree Days 37 9  
Month to date heating degree days 48 29  
Since 1 July heating degree days 1851 1663  
Cooling Degree Days 0 1  
Month to date cooling degree days 8 3  
Year to date cooling degree days 26 22  
Moisture  
Dew Point 22 °F    
Average Humidity 76    
Maximum Humidity 88    
Minimum Humidity 63    
Precipitation  
Precipitation T in 0.13 in 1.94 in (1977)
Month to date precipitation 0.09 0.40  
Year to date precipitation 2.91 8.45  
Snow  
Snow 0.00 in - - ()
Month to date snowfall 0.0  
Since 1 July snowfall 3.2  
Snow Depth 0.00 in    
Sea Level Pressure  
Sea Level Pressure 30.31 in    
Wind  
Wind Speed 10 mph (NNW)    
Max Wind Speed 20 mph    
Max Gust Speed 29 mph    
Visibility 9 miles    
Events      
T = Trace of Precipitation, MM = Missing Value Source: NWS Daily Summary

Daily Weather History Graph

Daily Weather History Graph

Search for Another Location

Airport or City:

Trip Planner

Search our weather history database for the weather conditions in past years. The results will help you decide how hot, cold, wet, or windy it might be!

Date:

Astronomy

Mar. 03, 2014 Rise Set
Actual Time 6:43 AM CST 6:18 PM CST
Civil Twilight 6:19 AM CST 6:43 PM CST
Nautical Twilight 5:51 AM CST 7:11 PM CST
Astronomical Twilight 5:23 AM CST 7:39 PM CST
Moon 8:04 AM CST (3/3) 9:08 PM CST (3/3)
Length of Visible Light 12h 23m
Length of Day
11h 35m
Waxing Crescent, 8% of the Moon is Illuminated
Mar 3
Waxing Crescent
Mar 8
First Quarter
Mar 16
Full
Mar 23
Last Quarter
Mar 30
New

Hourly Weather History & Observations

Time (CST) Temp. Windchill Dew Point Humidity Pressure Visibility Wind Dir Wind Speed Gust Speed Precip Events Conditions
12:53 AM 30.0 °F 21.7 °F 25.0 °F 82% 30.19 in 10.0 mi NNW 9.2 mph - N/A   Overcast
1:53 AM 28.0 °F 17.5 °F 23.0 °F 81% 30.22 in 8.0 mi NNW 12.7 mph 24.2 mph N/A   Overcast
2:01 AM 28.0 °F 17.0 °F 24.1 °F 85% 30.22 in 7.0 mi NNW 13.8 mph 19.6 mph N/A   Overcast
2:53 AM 27.0 °F 15.6 °F 23.0 °F 85% 30.22 in 6.0 mi NW 13.8 mph 23.0 mph N/A   Overcast
3:53 AM 27.0 °F 16.7 °F 23.0 °F 85% 30.24 in 6.0 mi NNW 11.5 mph - N/A   Overcast
4:53 AM 26.1 °F 16.2 °F 21.0 °F 81% 30.26 in 10.0 mi NNW 10.4 mph 18.4 mph N/A   Overcast
5:53 AM 25.0 °F 13.1 °F 21.0 °F 85% 30.30 in 10.0 mi NNW 13.8 mph 23.0 mph N/A   Overcast
6:53 AM 24.1 °F 12.5 °F 19.9 °F 84% 30.32 in 10.0 mi NNW 12.7 mph 20.7 mph N/A   Overcast
7:53 AM 25.0 °F 13.6 °F 19.0 °F 78% 30.35 in 10.0 mi NNW 12.7 mph 20.7 mph N/A   Overcast
8:16 AM 25.0 °F 14.2 °F 19.0 °F 78% 30.35 in 10.0 mi NW 11.5 mph - N/A   Overcast
8:53 AM 26.1 °F 16.2 °F 19.9 °F 78% 30.36 in 10.0 mi North 10.4 mph 19.6 mph N/A   Overcast
9:53 AM 26.1 °F 15.0 °F 19.9 °F 78% 30.37 in 7.0 mi North 12.7 mph 18.4 mph 0.00 in   Overcast
10:53 AM 28.9 °F 22.8 °F 21.0 °F 72% 30.37 in 10.0 mi Variable 5.8 mph - N/A   Overcast
11:53 AM 28.9 °F 21.1 °F 21.0 °F 72% 30.37 in 10.0 mi NW 8.1 mph - N/A   Overcast
12:11 PM 30.9 °F 22.2 °F 21.9 °F 69% 30.35 in 10.0 mi North 10.4 mph - N/A   Overcast
12:53 PM 32.0 °F 24.2 °F 21.9 °F 66% 30.35 in 10.0 mi North 9.2 mph - N/A   Overcast
1:53 PM 32.0 °F 24.8 °F 23.0 °F 69% 30.33 in 10.0 mi North 8.1 mph - N/A   Overcast
2:53 PM 32.0 °F 23.6 °F 21.9 °F 66% 30.32 in 10.0 mi North 10.4 mph - N/A   Overcast
3:53 PM 30.9 °F 21.7 °F 21.9 °F 69% 30.32 in 10.0 mi North 11.5 mph - N/A   Overcast
4:53 PM 32.0 °F 23.0 °F 21.9 °F 66% 30.32 in 10.0 mi North 11.5 mph - N/A   Overcast
5:53 PM 30.9 °F 22.8 °F 21.9 °F 69% 30.32 in 10.0 mi NNE 9.2 mph - N/A   Overcast
6:53 PM 30.9 °F 21.7 °F 23.0 °F 72% 30.31 in 10.0 mi NNE 11.5 mph - N/A   Overcast
7:05 PM 30.0 °F 22.4 °F 23.0 °F 75% 30.31 in 10.0 mi NE 8.1 mph - N/A   Overcast
7:53 PM 30.0 °F 21.7 °F 21.9 °F 72% 30.32 in 10.0 mi NE 9.2 mph 17.3 mph N/A   Overcast
8:53 PM 30.0 °F 24.1 °F 23.0 °F 75% 30.33 in 10.0 mi NNE 5.8 mph - N/A   Overcast
9:53 PM 30.0 °F 25.2 °F 23.0 °F 75% 30.31 in 10.0 mi NNW 4.6 mph - N/A   Overcast
10:04 PM 30.0 °F 25.2 °F 24.1 °F 79% 30.31 in 10.0 mi NW 4.6 mph - N/A   Overcast
10:30 PM 30.0 °F 24.1 °F 23.0 °F 75% 30.31 in 10.0 mi NW 5.8 mph - N/A   Scattered Clouds
10:53 PM 30.0 °F 24.1 °F 24.1 °F 79% 30.32 in 10.0 mi NNW 5.8 mph - N/A   Clear
11:34 PM 28.9 °F 25.2 °F 24.1 °F 82% 30.32 in 9.0 mi NNW 3.5 mph - N/A   Mostly Cloudy
11:53 PM 28.9 °F 23.9 °F 23.0 °F 78% 30.30 in 9.0 mi NNW 4.6 mph - N/A   Mostly Cloudy